Terminal Aerodrome Forecast
Issued by NWS

Home | Current Version | Previous Version | Graphics & Text | Print | Product List | Glossary On
Versions: 1 2 3 4 5 6 7 8 9 10 11 12 13 14 15 16 17 18 19 20 21 22 23 24 25
687
FTUS43 KBIS 040206 AAA
TAFJMS
TAF AMD
KJMS 040206Z 0402/0424 16012KT P6SM OVC007
     FM040500 18011KT P6SM -SN SCT015 OVC025
      TEMPO 0405/0407 2SM -SN BR OVC015
     FM040700 21009KT P6SM VCSH OVC015
     FM041000 25009KT P6SM OVC015
     FM041500 28012KT P6SM BKN008 OVC015
     FM042000 27010KT P6SM SCT025 BKN100=

USA.gov is the U.S. government's official web portal to all federal, state and local government web resources and services.